Regional Weather Roundup
Issued by NWS

Home | Current Version | Previous Version | Graphics & Text | Print | Product List | Glossary On
Versions: 1 2 3 4 5 6 7 8 9 10 11 12 13 14 15 16 17 18 19 20 21 22 23 24 25 26 27 28 29 30 31 32 33 34 35 36 37 38 39 40 41 42 43 44 45 46 47 48 49 50
000
ASUS43 KLOT 311758
RWRIL

ILLINOIS REGIONAL WEATHER ROUNDUP
NATIONAL WEATHER SERVICE CHICAGO/ROMEOVILLE IL
100 PM CDT THU JUL 31 2014

NOTE: "FAIR" INDICATES FEW OR NO CLOUDS BELOW 12,000 FEET WITH NO
SIGNIFICANT WEATHER AND/OR OBSTRUCTIONS TO VISIBILITY.

* THESE STATIONS ARE NOT UNDER NWS QUALITY CONTROL. THEY ALSO MAY NOT
  REPORT WEATHER SUCH AS PRECIPITATION OR FOG.

ILZ001-002-007-009-015-016-024-311900-
NORTHWEST ILLINOIS

CITY           SKY/WX    TMP DP  RH WIND       PRES   REMARKS
MOLINE         MOSUNNY   82  62  50 W12       30.07F HX  83
6HR MIN TEMP:  60; 6HR MAX TEMP:  82;

$$

ILZ003-004-008-010-011-017-018-311900-
NORTH CENTRAL ILLINOIS

CITY           SKY/WX    TMP DP  RH WIND       PRES   REMARKS
ROCKFORD       NOT AVBL
$$

ILZ005-006-012>014-019>023-311900-
NORTHEAST ILLINOIS

CITY           SKY/WX    TMP DP  RH WIND       PRES   REMARKS
CHICAGO-OHARE  MOSUNNY   81  53  37 W16G22    30.03S HX  80
6HR MIN TEMP:  64; 6HR MAX TEMP:  82;

CHICAGO-MIDWAY MOSUNNY   83  58  42 W15       30.04S HX  83
6HR MIN TEMP:  65; 6HR MAX TEMP:  83;

AURORA         MOSUNNY   80  60  50 W9        30.06S HX  81
6HR MIN TEMP:  57; 6HR MAX TEMP:  80;

WAUKEGAN       PTSUNNY   79  58  48 VRB6      30.02S HX  80
6HR MIN TEMP:  63; 6HR MAX TEMP:  80;

DUPAGE AIRPORT MOSUNNY   81  59  47 W13       30.04S HX  81
6HR MIN TEMP:  59; 6HR MAX TEMP:  82;

WHEELING       SUNNY     83  54  36 W10       30.04S HX  82
6HR MIN TEMP:  63; 6HR MAX TEMP:  83;

NORTHERLY ISL    N/A     80  55  42 W6          N/A  HX  80
$$

LMZ740>746-311900-
SOUTHERN LAKE MICHIGAN

STATION/POSITION SKY/WX   TEMP    WIND        PRES    VSBY  WAVE
                          AIR SEA DIR/SP/G                  HT/PER
                          (F)     (DEG/KT/KT) (MB)    (MI)  (FT/S)
SOUTHERN BUOY              63 62  230/  6/  6 1017.0S         1/ 3
WAUKEGAN HARBOR            78     290/ 13/ 21   N/A
HARRISON CRIB              76     260/ 11/ 17   N/A
BURNHAM HARBOR             79     310/  6/ 12   N/A
CALUMET HARBOR             80     240/  6/ 14 1015.9F
BURNS HARBOR               73     280/ 10/ 12 1018.3S
MICHIGAN CITY              71     240/ 11/ 13   N/A
MICHIGAN CITY 6N           71 70  250/  4/  6   N/A           1
ST. JOSEPH                 69 69  200/  6/  8   N/A           1/ 3
$$

ILZ025>027-034>036-040-047-049-050-058-095>099-311900-
WEST-CENTRAL ILLINOIS

CITY           SKY/WX    TMP DP  RH WIND       PRES   REMARKS
QUINCY         PTSUNNY   78  58  49 VRB5      30.10F
$$

ILZ028>032-037-038-041>044-048-051>054-059>061-311900-
CENTRAL ILLINOIS

CITY           SKY/WX    TMP DP  RH WIND       PRES   REMARKS
PEORIA         NOT AVBL
SPRINGFIELD    SUNNY     83  60  45 VRB6      30.10S HX  83
6HR MIN TEMP:  60; 6HR MAX TEMP:  83;

TAYLORVILLE    NOT AVBL
$$

ILZ033-039-045-046-055>057-062-063-311900-
EAST-CENTRAL ILLINOIS

CITY           SKY/WX    TMP DP  RH WIND       PRES   REMARKS
CHAMPAIGN      SUNNY     79  60  52 W6        30.10S HX  80
MATTOON        MOSUNNY   77  60  55 NW7       30.09F
$$

ILZ079-100>102-311900-
SOUTHWEST ILLINOIS

CITY           SKY/WX    TMP DP  RH WIND       PRES   REMARKS
CAHOKIA*       MOSUNNY   84  58  40 VRB3      30.08F HX  83
$$

ILZ064>066-069>071-074>076-080>082-084>086-088>090-092>094-311900-
SOUTH-CENTRAL ILLINOIS

CITY           SKY/WX    TMP DP  RH WIND       PRES   REMARKS
CARBONDALE     MOSUNNY   79  62  56 W7        30.10S HX  80
6HR MIN TEMP:  60; 6HR MAX TEMP:  82;

MARION         PTSUNNY   82  63  51 S9        30.11S HX  83
$$

ILZ067-068-072-073-078-083-087-091-311900-
SOUTHEAST ILLINOIS

CITY           SKY/WX    TMP DP  RH WIND       PRES   REMARKS
LAWRENCEVILLE  PTSUNNY   80  62  54 NW7       30.10S HX  81
$$

ABBREVIATIONS USED IN REMARKS
   TC - TEMPERATURE IN CELSIUS
  WCI - WIND CHILL INDEX
   HX - HEAT INDEX
  VSB - VISIBILITY
$$



USA.gov is the U.S. government's official web portal to all federal, state and local government web resources and services.